Date String (YYYY-MM-DD hh:mm:ss) UTC,Instrument flags,Ambient pressure (hPa),Sample flow (lpm),Bypass flow (lpm),Sample temperature (°C),Ambient temperature (°C),ASC tube jacket temperature (°C),LED temperature (°C),Box temperature (°C),Sample RH (%),Span deviation,Mass concentration (μg/m³),Mass concentration (μg/m³),Mass concentration (μg/m³)
DateTimeUTC,F1_M11,P_M11,Q1_M11,Q2_M11,T1_M11,T2_M11,T3_M11,T4_M11,T5_M11,U1_M11,ZSPAN_M11,X2_M11,X0_M11,X1_M11
2023-01-06 18:00:00,,0822.5,5.00,0.00,22.6,21.3,00.0,31.4,24.4,11.0,0000.0,0001.58,0003.25,0001.11
2023-01-06 18:01:00,,0822.5,5.00,0.00,22.6,21.3,00.0,31.4,24.4,11.1,0000.0,0001.59,0003.41,0001.11
2023-01-06 18:02:00,,0822.5,5.00,0.00,22.6,21.3,00.0,31.4,24.4,11.2,0000.0,0001.58,0004.74,0001.12
2023-01-06 18:03:00,,0822.6,4.99,0.00,22.6,21.3,00.0,31.4,24.4,11.4,0000.0,0001.56,0004.82,0001.13
2023-01-06 18:04:00,,0822.5,5.01,0.00,22.6,21.3,00.0,31.4,24.4,11.3,0000.0,0001.52,0004.78,0001.13
2023-01-06 18:05:00,,0822.6,5.00,0.00,22.6,21.3,00.0,31.4,24.4,11.3,0000.0,0001.53,0004.51,0001.14
2023-01-06 18:06:00,,0822.6,5.01,0.00,22.6,21.3,00.0,31.4,24.4,11.1,0000.0,0001.58,0004.88,0001.14
2023-01-06 18:07:00,,0822.6,5.03,0.00,22.6,21.3,00.0,31.4,24.4,11.2,0000.0,0001.63,0005.31,0001.15
2023-01-06 18:08:00,,0822.6,5.00,0.00,22.6,21.3,00.0,31.4,24.4,11.2,0000.0,0001.63,0005.60,0001.15
2023-01-06 18:09:00,,0822.6,5.00,0.00,22.6,21.3,00.0,31.4,24.4,11.4,0000.0,0001.63,0006.77,0001.15
2023-01-06 18:10:00,,0822.5,5.01,0.00,22.6,21.3,00.0,31.4,24.4,11.4,0000.0,0001.65,0007.44,0001.15
2023-01-06 18:11:00,,0822.5,5.00,0.00,22.6,21.3,00.0,31.4,24.4,11.5,0000.0,0001.67,0007.48,0001.16
2023-01-06 18:12:00,,0822.5,5.00,0.00,22.6,21.3,00.0,31.4,24.4,11.5,0000.0,0001.66,0007.25,0001.15
2023-01-06 18:13:00,,0822.6,5.01,0.00,22.6,21.3,00.0,31.4,24.4,11.3,0000.0,0001.67,0005.86,0001.16
2023-01-06 18:14:00,,0822.6,5.00,0.00,22.7,21.3,00.0,31.4,24.4,11.2,0000.0,0001.74,0006.07,0001.17
2023-01-06 18:15:00,,0822.6,5.00,0.00,22.7,21.4,00.0,31.4,24.4,11.2,0000.0,0001.81,0006.69,0001.19
2023-01-06 18:16:00,,0822.6,5.00,0.00,22.7,21.4,00.0,31.4,24.4,11.2,0000.0,0001.83,0007.53,0001.19
2023-01-06 18:17:00,,0822.6,5.01,0.00,22.7,21.4,00.0,31.4,24.4,11.4,0000.0,0001.88,0007.48,0001.20
2023-01-06 18:18:00,,0822.5,5.00,0.00,22.7,21.4,00.0,31.5,24.4,11.3,0000.0,0001.96,0007.94,0001.20
2023-01-06 18:19:00,,0822.5,5.01,0.00,22.7,21.4,00.0,31.5,24.4,11.5,0000.0,0002.11,0008.75,0001.22
2023-01-06 18:20:00,,0822.5,5.01,0.00,22.7,21.4,00.0,31.5,24.4,11.8,0000.0,0002.19,0008.37,0001.24
2023-01-06 18:21:00,,0822.5,5.00,0.00,22.7,21.4,00.0,31.5,24.4,11.7,0000.0,0002.31,0008.24,0001.26
2023-01-06 18:22:00,,0822.4,5.00,0.00,22.7,21.4,00.0,31.5,24.4,11.7,0000.0,0002.44,0008.79,0001.28
2023-01-06 18:23:00,,0822.5,5.00,0.00,22.7,21.4,00.0,31.5,24.4,11.7,0000.0,0002.61,0010.26,0001.30
2023-01-06 18:24:00,,0822.5,4.99,0.00,22.7,21.4,00.0,31.5,24.4,11.7,0000.0,0002.71,0010.92,0001.31
2023-01-06 18:25:00,,0822.5,5.01,0.00,22.7,21.4,00.0,31.5,24.5,11.6,0000.0,0002.76,0010.92,0001.33
2023-01-06 18:26:00,,0822.6,4.99,0.00,22.7,21.4,00.0,31.5,24.5,11.6,0000.0,0002.78,0010.71,0001.34
2023-01-06 18:27:00,,0822.6,5.00,0.00,22.7,21.4,00.0,31.5,24.5,11.5,0000.0,0002.84,0011.65,0001.37
2023-01-06 18:28:00,,0822.6,4.99,0.00,22.7,21.4,00.0,31.5,24.6,11.5,0000.0,0002.95,0013.20,0001.39
2023-01-06 18:29:00,,0822.6,4.99,0.00,22.7,21.4,00.0,31.5,24.6,11.5,0000.0,0002.99,0013.09,0001.40
2023-01-06 18:30:00,,0822.6,5.00,0.00,22.7,21.4,00.0,31.5,24.6,11.5,0000.0,0002.97,0012.78,0001.42
2023-01-06 18:31:00,,0822.6,5.01,0.00,22.7,21.4,00.0,31.5,24.6,11.4,0000.0,0002.93,0012.87,0001.42
2023-01-06 18:32:00,,0822.6,5.01,0.00,22.7,21.3,00.0,31.5,24.5,11.3,0000.0,0002.82,0012.67,0001.41
2023-01-06 18:33:00,,0822.6,4.99,0.00,22.7,21.3,00.0,31.5,24.5,11.2,0000.0,0002.70,0012.13,0001.41
2023-01-06 18:34:00,,0822.5,4.98,0.00,22.7,21.3,00.0,31.5,24.5,11.3,0000.0,0002.61,0011.45,0001.41
2023-01-06 18:35:00,,0822.6,5.00,0.00,22.7,21.3,00.0,31.5,24.5,11.3,0000.0,0002.62,0012.28,0001.41
2023-01-06 18:36:00,,0822.6,5.00,0.00,22.7,21.3,00.0,31.5,24.5,11.2,0000.0,0002.63,0012.84,0001.40
2023-01-06 18:37:00,,0822.6,5.00,0.00,22.6,21.3,00.0,31.5,24.5,11.2,0000.0,0002.68,0012.83,0001.41
2023-01-06 18:38:00,,0822.6,5.00,0.00,22.6,21.3,00.0,31.5,24.5,11.3,0000.0,0002.63,0011.56,0001.39
2023-01-06 18:39:00,,0822.6,5.01,0.00,22.6,21.3,00.0,31.5,24.4,11.3,0000.0,0002.58,0010.62,0001.38
2023-01-06 18:40:00,,0822.6,5.01,0.00,22.6,21.3,00.0,31.5,24.4,11.5,0000.0,0002.59,0010.51,0001.41
2023-01-06 18:41:00,,0822.6,4.99,0.00,22.6,21.3,00.0,31.5,24.5,11.5,0000.0,0002.63,0010.12,0001.43
2023-01-06 18:42:00,,0822.5,5.00,0.00,22.6,21.3,00.0,31.5,24.5,11.5,0000.0,0002.74,0010.47,0001.46
2023-01-06 18:43:00,,0822.5,4.99,0.00,22.6,21.3,00.0,31.5,24.4,11.5,0000.0,0002.89,0010.91,0001.49
2023-01-06 18:44:00,,0822.5,5.00,0.00,22.6,21.3,00.0,31.5,24.4,11.5,0000.0,0003.03,0011.47,0001.53
2023-01-06 18:45:00,,0822.4,5.00,0.00,22.6,21.3,00.0,31.5,24.4,11.5,0000.0,0003.09,0010.90,0001.56
2023-01-06 18:46:00,,0822.5,5.00,0.00,22.6,21.3,00.0,31.5,24.4,11.6,0000.0,0003.05,0009.73,0001.57
2023-01-06 18:47:00,,0822.4,5.01,0.00,22.6,21.3,00.0,31.4,24.4,11.8,0000.0,0003.06,0009.34,0001.58
2023-01-06 18:48:00,,0822.4,5.00,0.00,22.6,21.3,00.0,31.4,24.4,11.8,0000.0,0003.05,0009.51,0001.58
2023-01-06 18:49:00,,0822.4,4.99,0.00,22.6,21.3,00.0,31.4,24.4,11.8,0000.0,0003.12,0009.94,0001.59
2023-01-06 18:50:00,,0822.4,4.99,0.00,22.6,21.3,00.0,31.4,24.4,11.7,0000.0,0003.13,0009.51,0001.61
2023-01-06 18:51:00,,0822.5,5.00,0.00,22.6,21.3,00.0,31.4,24.4,11.7,0000.0,0003.11,0009.24,0001.61
2023-01-06 18:52:00,,0822.4,5.00,0.00,22.6,21.3,00.0,31.4,24.4,11.3,0000.0,0002.98,0008.97,0001.57
2023-01-06 18:53:00,,0822.4,4.98,0.00,22.6,21.3,00.0,31.4,24.4,11.3,0000.0,0002.85,0008.27,0001.55
2023-01-06 18:54:00,,0822.4,4.99,0.00,22.6,21.3,00.0,31.4,24.4,11.5,0000.0,0002.78,0007.98,0001.52
2023-01-06 18:55:00,,0822.4,5.01,0.00,22.6,21.4,00.0,31.4,24.4,11.8,0000.0,0002.73,0007.55,0001.50
2023-01-06 18:56:00,,0822.4,5.01,0.00,22.6,21.4,00.0,31.4,24.4,11.4,0000.0,0002.63,0007.17,0001.49
2023-01-06 18:57:00,,0822.4,5.00,0.00,22.7,21.4,00.0,31.4,24.4,11.3,0000.0,0002.56,0006.67,0001.47
2023-01-06 18:58:00,,0822.4,5.00,0.00,22.7,21.4,00.0,31.4,24.4,11.5,0000.0,0002.45,0006.16,0001.45
2023-01-06 18:59:00,,0822.4,5.01,0.00,22.7,21.4,00.0,31.4,24.4,12.1,0000.0,0002.39,0005.82,0001.46
